Terminal Aerodrome Forecast
Issued by NWS

Home | Current Version | Previous Version | Text Only | Print | Product List | Glossary Off
Versions: 1 2 3 4 5 6 7 8 9 10 11 12 13 14 15

000
FTUS43 KUNR 181100
TAFGCC
TAF
KGCC 181120Z 1812/1912 18015KT P6SM SCT120
     FM181800 23017KT P6SM SCT200
     FM190000 34011KT P6SM BKN120=

USA.gov is the U.S. government's official web portal to all federal, state and local government web resources and services.